[[{"header":{"parameterUnit":"m.s-1","parameterCategory":1,"la1":30.2991,"la2":30.254,"lo1":-89.0895,"lo2":-89.0444,"dy":0.0017,"dx":0.0017,"nx":28,"ny":28,"refTime":"2025-04-21T03:00:00:Z","depth":0,"parameterNumber":2,"parameterNumberName":"U-component_of_WINDS"},"data":[0,0,0,0,0,0,0,0,0,0,0,0,0,0,0,0,0,0,0,0,0,0,0,0,0,0,0,0,0,0,0,0,0,0,0,0,0,0,0,0,0,0,0,0,0,0,0,0,0,0,0,0,0,0,0,0,0,0,-2.7165,-2.7165,0,-2.7205,-2.7206,-2.7206,-2.7158,-2.7156,-2.7155,-2.7153,-2.7195,-2.7197,-2.72,0,0,0,0,0,0,0,0,0,0,0,0,0,-2.7046,-2.7048,-2.7165,-2.7165,-2.7166,-2.7205,-2.7206,-2.7207,-2.7158,-2.7156,-2.7154,-2.7152,-2.7194,-2.7197,-2.72,0,0,0,0,0,0,0,0,0,0,0,0,0,-2.7093,-2.7049,-2.7164,-2.7146,-2.7145,-2.7205,-2.7206,-2.7207,-2.7159,-2.7156,-2.7154,-2.7151,-2.7193,-2.7197,-2.7201,-2.7281,0,0,-2.7214,-2.7215,0,0,0,0,0,0,0,0,-2.7091,-2.7098,-2.7149,-2.7148,-2.7146,-2.7174,-2.7179,-2.7231,-2.716,-2.7154,-2.7153,-2.715,-2.719,-2.7194,-2.7208,-2.7283,-2.7284,-2.7214,-2.7217,-2.7218,-2.722,0,0,0,0,0,0,0,-2.7087,-2.7096,-2.7181,-2.7149,-2.7148,-2.7137,-2.714,-2.7189,-2.7186,-2.7154,-2.7151,-2.7156,-2.7189,-2.7204,-2.7208,-2.7285,-2.7214,-2.7218,-2.722,-2.7222,-2.7429,-2.7432,0,0,0,0,0,0,-2.7086,-2.7093,-2.7179,-2.7182,-2.7111,-2.7141,-2.7145,-2.7168,-2.7186,-2.7186,-2.7158,-2.7154,-2.7198,-2.7204,-2.721,-2.7305,-2.7218,-2.7222,-2.7225,-2.7426,-2.743,-2.7433,0,0,0,0,0,0,-2.7084,-2.7094,-2.7178,-2.7137,-2.7146,-2.7146,-2.7172,-2.717,-2.7185,-2.7189,-2.7188,-2.7174,-2.7196,-2.7204,-2.7264,-2.7306,-2.7224,-2.7228,-2.7423,-2.7427,-2.7431,-2.7496,0,0,0,0,0,0,-2.7081,-2.7094,-2.7124,-2.7138,-2.7149,-2.7231,-2.7174,-2.7173,-2.7192,-2.7187,-2.7204,-2.7204,-2.7195,-2.7258,-2.7268,-2.731,-2.7231,-2.7419,-2.7425,-2.743,-2.749,-2.7502,-2.7512,0,0,0,0,0,-2.7077,-2.714,-2.7125,-2.7136,-2.7186,-2.7233,-2.724,-2.7228,-2.7196,-2.7226,-2.7229,-2.7203,-2.73,-2.7264,-2.7275,-2.7319,-2.7416,-2.7423,-2.743,-2.7485,-2.75,-2.7512,0,0,0,0,0,0,-2.713,-2.7141,-2.7125,-2.7195,-2.7214,-2.7225,-2.7263,-2.7243,-2.7271,-2.7265,-2.7249,-2.7253,-2.7317,-2.7324,-2.7285,-2.7398,-2.7353,-2.7362,-2.7391,-2.7405,-2.7416,-2.7413,-2.7235,0,0,0,0,0,-2.715,-2.7187,-2.7195,-2.7256,-2.7266,-2.7263,-2.7283,-2.7273,-2.7291,-2.7299,-2.7306,-2.7325,-2.736,-2.7383,-2.7415,-2.7491,-2.7495,-2.7527,-2.7538,-2.7548,-2.7556,-2.7598,-2.7612,-2.7455,-2.7455,-2.7455,0,0,-2.7191,-2.7202,-2.7226,-2.7267,-2.728,-2.7319,-2.727,-2.7313,-2.7342,-2.7305,-2.7362,-2.7369,-2.7389,-2.7458,-2.7489,-2.7466,-2.76,-2.7556,-2.7563,-2.7566,-2.7606,-2.7621,-2.7634,-2.746,-2.7459,-2.7458,0,0,-2.7287,-2.7298,-2.7351,-2.7366,-2.7386,-2.7384,-2.7397,-2.7412,-2.7415,-2.7473,-2.7446,-2.7481,-2.7541,-2.7557,-2.7573,-2.7677,-2.7655,-2.7688,-2.7746,-2.7787,-2.78,-2.7811,-2.7848,-2.7862,-2.7696,-2.7697,-2.7697,0,-2.7335,-2.7393,-2.738,-2.7426,-2.7445,-2.7414,-2.7467,-2.7482,-2.7513,-2.7527,-2.7501,-2.7577,-2.7589,-2.7661,-2.7687,-2.7701,-2.7716,-2.7686,-2.7799,-2.781,-2.782,-2.7856,-2.787,-2.7701,-2.77,-2.77,-2.7699,0,-2.7452,-2.7493,-2.7533,-2.7564,-2.7587,-2.7637,-2.7632,-2.7658,-2.7646,-2.7647,-2.7707,-2.772,-2.7755,-2.7771,-2.776,-2.7843,-2.7828,-2.7801,-2.7755,-2.7839,-2.7872,-2.7886,-2.7706,-2.7705,-2.7704,-2.7703,0,0,-2.758,-2.7605,-2.762,-2.7634,-2.7656,-2.7687,-2.7736,-2.7771,-2.7793,-2.7816,-2.7857,-2.791,-2.7885,-2.7904,-2.7894,-2.7931,-2.8013,-2.7899,-2.7899,-2.792,-2.8107,-2.8127,-2.8143,-2.7999,-2.8002,-2.8004,-2.8105,0,-2.7676,-2.776,-2.7751,-2.7831,-2.7869,-2.7842,-2.7885,-2.7903,-2.7906,-2.794,-2.7943,-2.7981,-2.7945,-2.7956,-2.7991,-2.7996,-2.8051,-2.7988,-2.8037,-2.8039,-2.8032,-2.816,-2.8181,-2.8276,-2.8118,-2.812,-2.8122,0,-2.7798,-2.7826,-2.791,-2.7928,-2.7944,-2.7982,-2.8014,-2.8046,-2.8068,-2.8067,-2.8089,-2.8074,-2.8124,-2.8078,-2.8147,-2.8105,-2.8125,-2.813,-2.8134,-2.8137,-2.8085,-2.8167,-2.8306,-2.832,-2.8142,-2.8141,-2.8139,0,-2.7883,-2.7942,-2.8,-2.8014,-2.8036,-2.8064,-2.8074,-2.8093,-2.8115,-2.8143,-2.8157,-2.8191,-2.8209,-2.8236,-2.8231,-2.8198,-2.8302,-2.8255,-2.8303,-2.8304,-2.8325,-2.8324,-2.8469,-2.8339,-2.8339,-2.8339,-2.8338,0,-2.799,-2.8043,-2.8039,-2.8075,-2.8134,-2.8124,-2.8182,-2.819,-2.8207,-2.8244,-2.8223,-2.8259,-2.825,-2.8285,-2.8282,-2.834,-2.8348,-2.835,-2.8348,-2.8352,-2.8352,-2.8364,-2.8357,-2.8343,-2.8342,-2.8341,-2.834,0,-2.8095,-2.8094,-2.8156,-2.8173,-2.8178,-2.8221,-2.8235,-2.827,-2.8272,-2.832,-2.833,-2.8334,-2.8375,-2.8373,-2.8419,-2.8417,-2.8489,-2.8479,-2.8481,-2.8479,-2.8528,-2.8524,-2.8686,-2.8707,-2.8563,-2.8565,-2.8566,0,-2.8163,-2.8203,-2.8225,-2.8248,-2.8261,-2.8299,-2.8322,-2.8314,-2.8339,-2.8368,-2.8399,-2.8438,-2.8469,-2.8536,-2.8543,-2.8579,-2.857,-2.8625,-2.8575,-2.8578,-2.8571,-2.8569,-2.8573,-2.8634,-2.8636,-2.8637,-2.8638,0,-2.8284,-2.8282,-2.8316,-2.835,-2.8378,-2.8405,-2.8429,-2.845,-2.8445,-2.8474,-2.8516,-2.854,-2.8588,-2.8628,-2.8663,-2.8674,-2.8656,-2.8654,-2.8667,-2.867,-2.867,-2.8671,-2.8508,-2.865,-2.8649,-2.8648,-2.8647,-2.8647,-2.8372,-2.8407,-2.8428,-2.8467,-2.8485,-2.8508,-2.8542,-2.8549,-2.8584,-2.8623,-2.8616,-2.8664,-2.8686,-2.8731,-2.8746,-2.8783,-2.8764,-2.8783,-2.8787,-2.8792,-2.8798,-2.8665,-2.879,-2.8789,-2.8789,-2.8789,-2.8788,0,-2.8492,-2.8505,-2.8541,-2.8576,-2.8607,-2.8588,-2.8615,-2.8642,-2.8684,-2.8706,-2.8737,-2.8787,-2.8826,-2.8837,-2.8874,-2.8902,-2.8895,-2.8913,-2.891,-2.8913,-2.8813,-2.8798,-2.8918,-2.8918,-2.8918,-2.8918,-2.8918,-2.8918,-2.8558,-2.8617,-2.8618,-2.8686,-2.8698,-2.8745,-2.8762,-2.8784,-2.8802,-2.8858,-2.889,-2.8897,-2.8916,-2.8955,-2.899,-2.8993,-2.9007,-2.9028,-2.9027,-2.8933,-2.892,-2.8908,-2.8893,-2.9032,-2.9032,-2.9125,-2.9125,-2.9126]},{"header":{"parameterUnit":"m.s-1","parameterCategory":1,"la1":30.2991,"la2":30.254,"lo1":-89.0895,"lo2":-89.0444,"dy":0.0017,"dx":0.0017,"nx":28,"ny":28,"refTime":"2025-04-21T03:00:00:Z","depth":0,"parameterNumber":3,"parameterNumberName":"V-component_of_WINDS"},"data":[0,0,0,0,0,0,0,0,0,0,0,0,0,0,0,0,0,0,0,0,0,0,0,0,0,0,0,0,0,0,0,0,0,0,0,0,0,0,0,0,0,0,0,0,0,0,0,0,0,0,0,0,0,0,0,0,0,0,1.6489,1.6489,0,1.6534,1.6535,1.6535,1.6584,1.6585,1.6585,1.6586,1.6629,1.6629,1.663,0,0,0,0,0,0,0,0,0,0,0,0,0,1.6442,1.6442,1.6489,1.6489,1.649,1.6534,1.6535,1.6536,1.6584,1.6585,1.6585,1.6586,1.6629,1.6629,1.663,0,0,0,0,0,0,0,0,0,0,0,0,0,1.6472,1.6443,1.6489,1.6519,1.6523,1.6534,1.6535,1.6536,1.6584,1.6585,1.6586,1.6587,1.6628,1.6629,1.663,1.6614,0,0,1.6632,1.6633,0,0,0,0,0,0,0,0,1.647,1.6474,1.6514,1.6517,1.6521,1.6555,1.6534,1.6562,1.6583,1.656,1.6586,1.6587,1.6603,1.6606,1.6612,1.6616,1.6618,1.6632,1.6633,1.6633,1.6633,0,0,0,0,0,0,0,1.6468,1.6472,1.6507,1.6515,1.6519,1.653,1.6536,1.654,1.6575,1.6562,1.6566,1.6571,1.6605,1.6611,1.6613,1.6618,1.6632,1.6633,1.6633,1.6634,1.6613,1.6612,0,0,0,0,0,0,1.6462,1.647,1.6505,1.6508,1.6498,1.653,1.6537,1.6543,1.6575,1.6581,1.657,1.6573,1.6609,1.6613,1.6615,1.6599,1.6633,1.6634,1.6634,1.6614,1.6612,1.6611,0,0,0,0,0,0,1.6461,1.6465,1.6504,1.649,1.6496,1.653,1.6537,1.6543,1.6549,1.6581,1.6587,1.657,1.661,1.6614,1.6614,1.6601,1.6634,1.6635,1.6615,1.6613,1.6612,1.6567,0,0,0,0,0,0,1.6459,1.6464,1.6458,1.649,1.6497,1.6502,1.6536,1.6543,1.6551,1.6555,1.6583,1.6588,1.6611,1.6613,1.6615,1.6603,1.6635,1.6616,1.6614,1.6612,1.6569,1.6564,1.6559,0,0,0,0,0,1.6457,1.6442,1.6458,1.6462,1.649,1.6501,1.6505,1.6533,1.655,1.6544,1.6565,1.6587,1.6603,1.6613,1.6615,1.6603,1.6617,1.6615,1.6612,1.6572,1.6565,1.6559,0,0,0,0,0,0,1.6406,1.6447,1.6464,1.6459,1.6477,1.651,1.6503,1.6525,1.6537,1.654,1.6574,1.658,1.6576,1.659,1.66,1.659,1.6613,1.6611,1.6581,1.6575,1.657,1.6566,1.6636,0,0,0,0,0,1.6395,1.6402,1.6436,1.6429,1.6437,1.6469,1.6474,1.6495,1.6514,1.6521,1.6542,1.6558,1.6567,1.6572,1.6582,1.6572,1.6579,1.6565,1.656,1.6556,1.6553,1.655,1.6545,1.6604,1.6604,1.6604,0,0,1.6371,1.6394,1.6395,1.6419,1.6435,1.6441,1.6474,1.6478,1.6483,1.6521,1.6523,1.6539,1.656,1.6556,1.6555,1.6567,1.6539,1.6553,1.6549,1.6549,1.6548,1.6542,1.6537,1.6602,1.6603,1.6603,0,0,1.633,1.6348,1.6344,1.636,1.6384,1.6406,1.6405,1.6436,1.6448,1.6451,1.6481,1.6486,1.65,1.6514,1.6523,1.649,1.6511,1.6492,1.6464,1.6461,1.6457,1.6453,1.6441,1.6437,1.649,1.649,1.649,0,1.6296,1.6306,1.6339,1.6342,1.6352,1.6389,1.6386,1.6399,1.6425,1.643,1.6444,1.6464,1.6481,1.6481,1.6473,1.6479,1.6479,1.6489,1.6455,1.6451,1.6448,1.6437,1.6433,1.6488,1.6488,1.6488,1.6488,0,1.6264,1.6271,1.6265,1.6291,1.63,1.63,1.6332,1.6337,1.6358,1.6378,1.6381,1.6403,1.6418,1.642,1.6439,1.6423,1.643,1.6449,1.6472,1.6439,1.643,1.6426,1.6484,1.6485,1.6486,1.6486,0,0,1.619,1.6236,1.6234,1.6247,1.6278,1.6283,1.6285,1.6302,1.6306,1.6323,1.6325,1.6337,1.6356,1.6366,1.6387,1.6384,1.6358,1.6404,1.6405,1.6395,1.6342,1.6328,1.6322,1.6373,1.6372,1.6371,1.6341,0,1.6154,1.6161,1.6191,1.6188,1.6195,1.6232,1.6234,1.6253,1.6272,1.6281,1.6302,1.631,1.6334,1.6341,1.634,1.6361,1.6348,1.6364,1.6374,1.6374,1.6367,1.6317,1.6302,1.6271,1.6337,1.6337,1.6336,0,1.6112,1.6129,1.6128,1.616,1.6165,1.6165,1.6184,1.6192,1.6215,1.6229,1.6242,1.6266,1.627,1.6293,1.6299,1.6309,1.6316,1.6327,1.6327,1.6328,1.6352,1.6317,1.6262,1.6258,1.6331,1.6331,1.6331,0,1.6059,1.6081,1.6084,1.6093,1.6131,1.6132,1.6147,1.6171,1.618,1.6196,1.6202,1.6218,1.6226,1.6238,1.6266,1.628,1.6269,1.6294,1.628,1.628,1.6275,1.6275,1.622,1.628,1.628,1.628,1.628,0,1.6015,1.6013,1.606,1.6061,1.606,1.6096,1.6093,1.6112,1.6134,1.6139,1.6172,1.6176,1.6213,1.6222,1.6244,1.6245,1.6249,1.626,1.6266,1.6257,1.6256,1.6261,1.6264,1.6279,1.6279,1.628,1.628,0,1.5955,1.5987,1.5992,1.6028,1.6038,1.6035,1.6066,1.6069,1.6091,1.6098,1.6101,1.6136,1.6148,1.6178,1.6197,1.6212,1.6207,1.6218,1.62,1.6204,1.6189,1.619,1.6135,1.613,1.6193,1.6192,1.6192,0,1.5925,1.5924,1.5962,1.5969,1.5983,1.5994,1.6004,1.6039,1.6048,1.6075,1.6074,1.6089,1.6103,1.612,1.6146,1.6161,1.6173,1.6153,1.6175,1.6166,1.6172,1.6172,1.6172,1.6147,1.6146,1.6146,1.6145,0,1.5868,1.5884,1.5898,1.5918,1.5929,1.5946,1.5964,1.5968,1.6007,1.6015,1.6029,1.604,1.6061,1.6075,1.6095,1.611,1.6134,1.6138,1.6136,1.6127,1.6116,1.6122,1.6186,1.6139,1.614,1.614,1.614,1.6141,1.5822,1.5824,1.5851,1.5865,1.5884,1.5901,1.5906,1.593,1.5942,1.5963,1.5983,1.5995,1.6019,1.6048,1.6062,1.6071,1.6083,1.608,1.6079,1.6077,1.6074,1.6115,1.6075,1.6075,1.6075,1.6075,1.6076,0,1.5767,1.5787,1.58,1.5826,1.5838,1.5862,1.5884,1.5891,1.5902,1.5923,1.5937,1.5953,1.5968,1.5996,1.6013,1.6015,1.6026,1.6018,1.6018,1.6022,1.6062,1.6062,1.6009,1.6009,1.6009,1.6009,1.6009,1.6009,1.574,1.5744,1.5764,1.5779,1.5799,1.5812,1.5822,1.5838,1.5856,1.5873,1.5886,1.5905,1.5929,1.5949,1.5963,1.5971,1.5976,1.5964,1.5975,1.6012,1.6018,1.6024,1.6025,1.5965,1.5965,1.5935,1.5934,1.5934]}]]